Regional Weather Roundup
Issued by NWS

Home | Current Version | Previous Version | Text Only | Print | Product List | Glossary Off
Versions: 1 2 3 4 5 6 7 8 9 10 11 12 13 14 15 16 17 18 19 20 21 22 23 24 25 26 27 28 29 30 31 32 33 34 35 36 37 38 39 40 41 42 43 44 45 46 47 48 49 50

000
ASUS43 KLMK 160002
RWRKY
KENTUCKY REGIONAL WEATHER ROUNDUP
NATIONAL WEATHER SERVICE LOUISVILLE KY
800 PM EDT TUE AUG 15 2017

NOTE "FAIR" INDICATES FEW OR NO CLOUDS BELOW 12,000 FEET
WITH NO SIGNIFICANT WEATHER AND/OR OBSTRUCTIONS TO VISIBILITY.

KYZ001>023-026-027-061>063-070>075-160100-
WESTERN AND SOUTH CENTRAL KENTUCKY

CITY           SKY/WX    TMP DP  RH WIND       PRES   REMARKS
PADUCAH        PTCLDY    83  72  69 S3        29.88R
HENDERSON      PTCLDY    83  74  74 E3        29.90
OWENSBORO      MOCLDY    84  71  65 NE3       29.90R
HOPKINSVILLE   PTCLDY    82  73  73 SW8       29.91R
BOWLING GREEN  MOCLDY    84  72  67 CALM      29.93R
GLASGOW        PTCLDY    81  71  72 CALM      29.93R
$$

KYZ024-025-028>034-038-045-046-053-160100-
NORTH CENTRAL KENTUCKY

CITY           SKY/WX    TMP DP  RH WIND       PRES   REMARKS
LOUISVILLE/SDF MOCLDY    85  69  58 NW5       29.91R
LOUISVILLE/LOU CLOUDY    85  70  60 CALM      29.91S
FORT KNOX      CLOUDY    81  72  73 NW3       29.91R
$$

KYZ035>037-039>044-047>052-055>060-089>105-160100-
NORTHEAST KENTUCKY

CITY           SKY/WX    TMP DP  RH WIND       PRES   REMARKS
LEXINGTON      CLOUDY    83  68  60 CALM      29.94R
COVINGTON      MOCLDY    82  70  66 W5        29.92S
FRANKFORT      CLOUDY    81  70  69 CALM      29.93R
$$

KYZ054-064>069-076>088-106>120-160100-
SOUTHEAST KENTUCKY

CITY           SKY/WX    TMP DP  RH WIND       PRES   REMARKS
JACKSON        CLOUDY    79  70  74 CALM      29.97R
LONDON         CLEAR     80  71  74 NW3       29.97R
SOMERSET       NOT AVBL
MIDDLESBORO    PTCLDY    79  73  81 CALM      29.97R
MONTICELLO     CLOUDY    79  76  90 NE12      29.97R
$$





USA.gov is the U.S. government's official web portal to all federal, state and local government web resources and services.